Location: Ceske Budejovice
(48.9830°N, 14.4670°E)
Time: 17:37:26
(UTC+02:00)

MOZHAYETS 4 - Visible Passes

Search period start: 17 July 2019 00:00
Search period end: 27 July 2019 00:00
Orbit: 662 x 680 km, 98.0° (Epoch: 17 July)

Date Brightness Start Highest point End Pass type
(mag) Time Alt. Az. Time Alt. Az. Time Alt. Az.
17 Jul 8.2 02:34:39 15° SSE 02:38:19 57° ENE 02:42:51 10° N visible
17 Jul 9.3 04:12:53 11° SW 04:15:50 19° W 04:19:03 10° NW visible
18 Jul 10.2 01:31:49 10° E 01:34:47 17° ENE 01:37:46 10° NNE visible
18 Jul 7.7 03:08:12 19° S 03:11:24 71° WSW 03:16:01 10° NNW visible
19 Jul 9.3 02:03:33 10° SE 02:07:34 31° ENE 02:11:37 10° N visible
19 Jul 8.5 03:41:44 17° SSW 03:44:38 35° W 03:48:52 10° NNW visible
20 Jul 8.2 02:37:03 17° SSE 02:40:30 60° ENE 02:45:04 10° N visible
20 Jul 9.3 04:15:17 11° SW 04:18:03 18° W 04:21:11 10° NW visible
21 Jul 10.1 01:33:54 10° E 01:36:57 18° ENE 01:40:03 10° NNE visible
21 Jul 7.7 03:10:35 21° S 03:13:36 68° WSW 03:18:13 10° NNW visible
22 Jul 9.3 02:05:54 11° SE 02:09:45 32° ENE 02:13:52 10° N visible
22 Jul 8.5 03:44:09 18° SSW 03:46:51 33° W 03:51:02 10° NNW visible
23 Jul 10.6 01:05:51 10° ENE 01:06:29 10° NE 01:07:06 10° NE visible
23 Jul 8.1 02:39:27 19° SSE 02:42:42 63° ENE 02:47:17 10° N visible
23 Jul 9.4 04:17:42 11° SW 04:20:16 17° W 04:23:18 10° NW visible
24 Jul 10.1 01:35:57 10° ESE 01:39:08 19° ENE 01:42:19 10° NNE visible
24 Jul 7.7 03:13:01 23° S 03:15:48 65° WSW 03:20:25 10° NNW visible
25 Jul 9.2 02:08:19 13° SE 02:11:55 34° ENE 02:16:06 10° N visible
25 Jul 8.6 03:46:34 19° SW 03:49:04 32° W 03:53:13 10° NNW visible
26 Jul 10.6 01:07:34 10° ENE 01:08:38 11° NE 01:09:44 10° NE visible
26 Jul 8.0 02:41:53 21° SSE 02:44:53 67° ENE 02:49:30 10° N visible
26 Jul 9.4 04:20:07 12° WSW 04:22:30 16° W 04:25:24 10° NW visible
